Hourly Data Report for October 03, 2017

All times are specified in Local Standard Time (LST). Add 1 hour to adjust for Daylight Saving Time where and when it is observed.

HAY RIVER A
NORTHWEST TERRITORIES

60°50'23.000" N
115°46'58.000" W
164.90 m
2202401
71935
YHY

Download Data

Hourly Data (October 2017)
Hourly Data Report for October 3, 2017
Temp Definition
°C
Dew Point Temp Definition
°C
Rel Hum Definition
%
Wind Dir Definition
10's deg

Wind Spd Definition
km/h
Visibility Definition
km
Stn Press Definition
kPa
Hmdx Definition


Wind Chill Definition


Weather Definition


TIME
00:00 Legend Double Dagger 4.3 -2.8 60 18 21 24.1 99.83     LegendNANA
01:00 Legend Double Dagger 4.4 -3.2 58 18 18 24.1 99.72     LegendNANA
02:00 Legend Double Dagger 4.4 -3.1 58 18 22 24.1 99.59     Mainly Clear
03:00 Legend Double Dagger 5.1 -3.1 55 20 16 24.1 99.49     LegendNANA
04:00 Legend Double Dagger 5.3 -3.2 54 20 17 24.1 99.35     LegendNANA
05:00 Legend Double Dagger 5.8 -3.3 52 20 18 24.1 99.24     Mostly Cloudy
06:00 Legend Double Dagger 6.3 -3.1 51 21 18 24.1 99.11     LegendNANA
07:00 Legend Double Dagger 6.2 -3.2 51 21 18 24.1 99.01     LegendNANA
08:00 Legend Double Dagger 6.2 -2.6 53 22 16 24.1 99.01     Mostly Cloudy
09:00 Legend Double Dagger 8.3 -1.8 49 25 18 24.1 99.04     LegendNANA
10:00 Legend Double Dagger 9.5 0.1 52 29 21 24.1 99.09     LegendNANA
11:00 Legend Double Dagger 10.5 2.6 58 31 25 24.1 99.11     Mostly Cloudy
12:00 Legend Double Dagger 9.7 3.6 65 32 23 24.1 99.17     LegendNANA
13:00 Legend Double Dagger 10.7 3.6 61 31 18 24.1 99.23     LegendNANA
14:00 Legend Double Dagger 12.6 3.8 55 30 24 24.1 99.26     Mainly Clear
15:00 Legend Double Dagger 12.0 4.7 61 32 24 24.1 99.35     LegendNANA
16:00 Legend Double Dagger 10.4 3.7 63 34 20 24.1 99.53     LegendNANA
17:00 Legend Double Dagger 8.5 2.8 68 34 21 24.1 99.69     Mostly Cloudy
18:00 Legend Double Dagger 6.8 2.6 74 33 31 24.1 99.82     LegendNANA
19:00 Legend Double Dagger 6.6 2.0 72 33 25 24.1 99.86     LegendNANA
20:00 Legend Double Dagger 6.5 1.5 70 35 11 24.1 99.96     Mostly Cloudy
21:00 Legend Double Dagger 6.5 1.6 70 33 11 24.1 100.01     LegendNANA
22:00 Legend Double Dagger 6.3 2.0 74 33 10 24.1 100.05     LegendNANA
23:00 Legend Double Dagger 5.9 1.8 75 2 6 24.1 100.10     Cloudy

Notes on Data Quality.

Legend

  • E = Estimated
  • M = Missing
  • NA = Not Available
  • ‡ = Partner data that is not subject to review by the National Climate Archives
Date modified: